Regional Weather Roundup
Issued by NWS Northern Indiana

Home | Current Version | Previous Version | Text Only | Print | Product List | Glossary Off
Versions: 1 2 3 4 5 6 7 8 9 10 11 12 13 14 15 16 17 18 19 20 21 22 23 24 25 26 27 28 29 30 31 32 33 34 35 36 37 38 39 40 41 42 43 44 45 46 47 48 49 50

000
ASUS43 KIWX 171200
RWRIWX

KIWX WEATHER ROUNDUP
NATIONAL WEATHER SERVICE NORTHERN INDIANA
800 AM EDT TUE OCT 17 2017

NOTE: "FAIR" INDICATES FEW OR NO CLOUDS BELOW 12,000 FEET WITH NO
SIGNIFICANT WEATHER AND/OR OBSTRUCTIONS TO VISIBILITY.

* THESE STATIONS ARE NOT UNDER NWS QUALITY CONTROL. THEY ALSO MAY NOT
  REPORT WEATHER SUCH AS PRECIPITATION OR FOG.

INZ001>027-171300-
NORTHERN INDIANA

CITY           SKY/WX    TMP DP  RH WIND       PRES   REMARKS
GARY*          PTCLDY    50  37  62 SW8       30.24R
MICHIGAN CITY* CLEAR     45  37  76 S9        30.24S
KNOX*          CLEAR     43  37  81 SW8       30.26F
SOUTH BEND     CLEAR     44  39  82 SW12      30.25S
6HR MIN TEMP:  43; 6HR MAX TEMP:  45;

ELKHART*       CLEAR     45  37  76 SW6       30.25S
GOSHEN         CLEAR     44  37  76 SW9       30.26S
6HR MIN TEMP:  43; 6HR MAX TEMP:  45;

MONTICELLO*    CLEAR     43  37  79 S7        30.29F
6HR MIN TEMP:  43; 6HR MAX TEMP:  45;

WARSAW*        PTCLDY    45  37  76 SW5       30.27F
AUBURN*        CLEAR     45  36  70 SW6       30.28S
FORT WAYNE     PTCLDY    42  37  82 SW10      30.30S
6HR MIN TEMP:  40; 6HR MAX TEMP:  43;

PERU/GRISSOM   CLEAR     44  38  79 SW12      30.30S
6HR MIN TEMP:  42; 6HR MAX TEMP:  44;


$$
INZ028>050-171300-
CENTRAL INDIANA

CITY           SKY/WX    TMP DP  RH WIND       PRES   REMARKS
LAFAYETTE      CLEAR     39  38  96 CALM      30.32S
6HR MIN TEMP:  39; 6HR MAX TEMP:  45;

KOKOMO*        CLEAR     47  37  68 SW10      30.32S
6HR MIN TEMP:  45; 6HR MAX TEMP:  48;

MUNCIE*        CLEAR     46  36  68 SW7       30.33S
6HR MIN TEMP:  45; 6HR MAX TEMP:  47;

INDIANAPOLIS   PTCLDY    43  38  82 SW3       30.35R
6HR MIN TEMP:  41; 6HR MAX TEMP:  45;


$$
MIZ043>046-050>051-056>058-064>065-071>073-077>080-171300-
SOUTHWEST LOWER MICHIGAN

CITY           SKY/WX    TMP DP  RH WIND       PRES   REMARKS
BATTLE CREEK   CLEAR     44  39  82 SW10      30.21F
6HR MIN TEMP:  42; 6HR MAX TEMP:  45;

BENTON HARBOR  CLEAR     47  37  68 S8        30.21S
6HR MIN TEMP:  41; 6HR MAX TEMP:  47;

COLDWATER*     CLEAR     45  38  78 SW8       30.23F
6HR MIN TEMP:  43; 6HR MAX TEMP:  46;

HILLSDALE*     CLEAR     43  36  75 S7        30.23S
HOLLAND        CLEAR     50  45  83 SW14      30.16F
6HR MIN TEMP:  43; 6HR MAX TEMP:  53;

GRAND RAPIDS   PTCLDY    49  41  74 S13       30.16S
6HR MIN TEMP:  45; 6HR MAX TEMP:  49;

STURGIS*       CLEAR     41  38  90 SW6       30.24S
6HR MIN TEMP:  40; 6HR MAX TEMP:  43;

THREE RIVERS*  FAIR      43  39  87 S7        30.24F
6HR MIN TEMP:  42; 6HR MAX TEMP:  44;


$$
OHZ001>008-015>018-024>025-171300-
NORTHWEST OHIO

CITY           SKY/WX    TMP DP  RH WIND       PRES   REMARKS
DEFIANCE       CLEAR     42  36  79 SW6       30.28F
6HR MIN TEMP:  39; 6HR MAX TEMP:  43;

FINDLAY        CLEAR     42  36  79 S9        30.29F
6HR MIN TEMP:  40; 6HR MAX TEMP:  42;

TOLEDO EXPRESS CLEAR     43  39  86 SW7       30.27S
6HR MIN TEMP:  42; 6HR MAX TEMP:  44;

TOLEDO METCALF CLEAR     44  38  79 SW7       30.28F
6HR MIN TEMP:  43; 6HR MAX TEMP:  45;

LIMA           CLEAR     43  37  79 SW6       30.31S
6HR MIN TEMP:  41; 6HR MAX TEMP:  43;


$$
AND FOR LAKE MICHIGAN COASTAL AND OPEN LAKE BUOY OBSERVATIONS

STATION/POSITION TEMP    WIND        PRES    VSBY  WAVE
                 AIR SEA DIR/SP/G                  HT/PER
                 (F)     (DEG/KT/KT) (MB)    (MI)  (FT/S)
CALUMET HARBOR    51     210/  9/ 14 1022.6R
MICHIGAN CITY     49     170/ 17/ 19   N/A
BURNS HARBOR      49     190/ 16/ 22 1023.7F
SAINT JOSEPH      49     180/  8/ 15 1023.7
SOUTH LAKE BUOY   60 62  240/ 21/ 27 1020.6          4/ 5
4 MI NW BRIDGMAN  53 56  190/ 14/ 16 1023.7F         3/ 4
MICHIGAN CITY     52 57  210/ 16/ 19   N/A           2/ 3

$$
&&




USA.gov is the U.S. government's official web portal to all federal, state and local government web resources and services.